| time (UTC) | temp F | wind direction | speed MPH | gust MPH | rain 1hr in | rain 24hr in | rain mn in | humidity % | barometer mb |
| 20260507105502 | 52 | 344 | 0.0 | 2.0 | 0.06 | 0.17 | 0.06 | 83 | 1014.8 |
| 20260507105003 | 53 | 326 | 0.0 | 3.0 | 0.02 | 0.13 | 0.02 | 80 | 1014.8 |
| 20260507104504 | 53 | 123 | 0.0 | 3.0 | 0.00 | 0.11 | 0.00 | 81 | 1014.8 |
| 20260507104003 | 54 | 122 | 0.0 | 2.0 | 0.00 | 0.11 | 0.00 | 79 | 1014.7 |
| 20260507103503 | 54 | 110 | 0.0 | 3.0 | 0.00 | 0.11 | 0.00 | 78 | 1014.6 |
| 20260507103003 | 55 | 76 | 1.0 | 3.0 | 0.00 | 0.11 | 0.00 | 80 | 1014.6 |
| 20260507102502 | 55 | 151 | 0.0 | 2.0 | 0.00 | 0.11 | 0.00 | 78 | 1014.7 |
| 20260507102002 | 56 | 18 | 1.0 | 2.0 | 0.00 | 0.11 | 0.00 | 76 | 1014.7 |
| 20260507101504 | 56 | 192 | 0.0 | 2.0 | 0.00 | 0.11 | 0.00 | 77 | 1014.6 |
| 20260507101002 | 56 | 18 | 0.0 | 2.0 | 0.00 | 0.11 | 0.00 | 78 | 1014.6 |
| 20260507100504 | 56 | 127 | 0.0 | 2.0 | 0.00 | 0.11 | 0.00 | 77 | 1014.6 |
| 20260507100004 | 56 | 137 | 0.0 | 3.0 | 0.00 | 0.11 | 0.00 | 78 | 1014.6 |
| 20260507095504 | 55 | 263 | 1.0 | 3.0 | 0.00 | 0.11 | 0.00 | 75 | 1014.7 |
| 20260507095003 | 55 | 207 | 1.0 | 3.0 | 0.00 | 0.11 | 0.00 | 78 | 1014.7 |
| 20260507094504 | 55 | 122 | 0.0 | 4.0 | 0.00 | 0.11 | 0.00 | 78 | 1014.6 |
| 20260507094003 | 55 | 131 | 1.0 | 5.0 | 0.00 | 0.11 | 0.00 | 81 | 1014.6 |
| 20260507093503 | 54 | 121 | 2.0 | 5.0 | 0.00 | 0.11 | 0.00 | 79 | 1014.5 |
| 20260507093004 | 53 | 94 | 0.0 | 2.0 | 0.00 | 0.11 | 0.00 | 80 | 1014.5 |
| 20260507092504 | 53 | 143 | 1.0 | 4.0 | 0.00 | 0.11 | 0.00 | 81 | 1014.5 |
| 20260507092005 | 53 | 242 | 1.0 | 4.0 | 0.00 | 0.11 | 0.00 | 80 | 1014.4 |
| 20260507091507 | 53 | 103 | 0.0 | 2.0 | 0.00 | 0.11 | 0.00 | 82 | 1014.4 |
| 20260507091004 | 53 | 257 | 1.0 | 2.0 | 0.00 | 0.11 | 0.00 | 80 | 1014.4 |
| 20260507090507 | 53 | 159 | 0.0 | 2.0 | 0.00 | 0.11 | 0.00 | 80 | 1014.3 |
| 20260507090004 | 53 | 136 | 0.0 | 2.0 | 0.00 | 0.11 | 0.00 | 79 | 1014.3 |
| 20260507085503 | 53 | 290 | 0.0 | 2.0 | 0.00 | 0.11 | 0.00 | 81 | 1014.4 |
| 20260507085003 | 53 | 300 | 0.0 | 2.0 | 0.00 | 0.11 | 0.00 | 80 | 1014.4 |
| 20260507084504 | 53 | 194 | 0.0 | 2.0 | 0.00 | 0.11 | 0.00 | 81 | 1014.3 |
| 20260507084003 | 53 | 150 | 0.0 | 2.0 | 0.00 | 0.11 | 0.00 | 82 | 1014.4 |
| 20260507083507 | 53 | 193 | 0.0 | 2.0 | 0.00 | 0.11 | 0.00 | 80 | 1014.4 |
| 20260507083004 | 53 | 155 | 0.0 | 2.0 | 0.00 | 0.11 | 0.00 | 81 | 1014.3 |
| 20260507082503 | 53 | 158 | 0.0 | 2.0 | 0.00 | 0.11 | 0.00 | 82 | 1014.4 |
| 20260507082004 | 52 | 143 | 0.0 | 1.0 | 0.00 | 0.11 | 0.00 | 82 | 1014.3 |
| 20260507081505 | 52 | 149 | 0.0 | 1.0 | 0.00 | 0.11 | 0.00 | 83 | 1014.3 |
| 20260507081003 | 52 | 154 | 0.0 | 1.0 | 0.00 | 0.11 | 0.00 | 83 | 1014.3 |
| 20260507080503 | 52 | 143 | 0.0 | 1.0 | 0.00 | 0.11 | 0.00 | 84 | 1014.3 |
| 20260507080005 | 51 | 143 | 0.0 | 1.0 | 0.00 | 0.11 | 0.00 | 83 | 1014.3 |
| 20260507075503 | 51 | 142 | 0.0 | 1.0 | 0.00 | 0.11 | 0.00 | 86 | 1014.3 |
| 20260507075003 | 51 | 143 | 0.0 | 1.0 | 0.00 | 0.11 | 0.00 | 87 | 1014.3 |
| 20260507074506 | 50 | 143 | 0.0 | 1.0 | 0.00 | 0.11 | 0.00 | 88 | 1014.2 |
| 20260507074003 | 50 | 143 | 0.0 | 1.0 | 0.00 | 0.11 | 0.00 | 90 | 1014.2 |
| 20260507073503 | 49 | 143 | 0.0 | 1.0 | 0.00 | 0.11 | 0.00 | 89 | 1014.1 |
| 20260507073003 | 49 | 143 | 0.0 | 1.0 | 0.00 | 0.11 | 0.00 | 90 | 1014.1 |
| 20260507072504 | 49 | 143 | 0.0 | 1.0 | 0.00 | 0.11 | 0.00 | 90 | 1014.1 |
| 20260507072002 | 49 | 143 | 0.0 | 1.0 | 0.00 | 0.11 | 0.00 | 90 | 1014.1 |
| 20260507071506 | 49 | 143 | 0.0 | 1.0 | 0.00 | 0.11 | 0.00 | 90 | 1014.1 |
| 20260507071003 | 49 | 143 | 0.0 | 1.0 | 0.00 | 0.11 | 0.00 | 91 | 1014.1 |
| 20260507070503 | 48 | 143 | 0.0 | 1.0 | 0.00 | 0.11 | 0.00 | 91 | 1014.1 |
| 20260507070008 | 48 | 143 | 0.0 | 1.0 | 0.00 | 0.11 | 0.00 | 91 | 1014.1 |
| 20260507065503 | 48 | 143 | 0.0 | 1.0 | 0.00 | 0.11 | 0.00 | 91 | 1014.1 |
| 20260507065004 | 48 | 143 | 0.0 | 1.0 | 0.00 | 0.11 | 0.00 | 92 | 1014.1 |
| 20260507064508 | 48 | 143 | 0.0 | 1.0 | 0.00 | 0.11 | 0.00 | 92 | 1014.0 |
| 20260507064003 | 48 | 143 | 0.0 | 1.0 | 0.00 | 0.11 | 0.00 | 92 | 1014.0 |
| 20260507063504 | 48 | 142 | 0.0 | 1.0 | 0.00 | 0.11 | 0.00 | 92 | 1013.9 |
| 20260507063005 | 47 | 142 | 0.0 | 1.0 | 0.00 | 0.11 | 0.00 | 93 | 1013.8 |
| 20260507062506 | 47 | 142 | 0.0 | 1.0 | 0.00 | 0.11 | 0.00 | 93 | 1013.9 |
| 20260507062002 | 47 | 142 | 0.0 | 1.0 | 0.00 | 0.11 | 0.00 | 93 | 1013.8 |
| 20260507061527 | 47 | 142 | 0.0 | 1.0 | 0.00 | 0.11 | 0.00 | 93 | 1013.8 |
| 20260507061008 | 46 | 142 | 0.0 | 1.0 | 0.00 | 0.11 | 0.00 | 93 | 1013.7 |
| 20260507060506 | 46 | 142 | 0.0 | 1.0 | 0.00 | 0.11 | 0.00 | 92 | 1013.7 |
| 20260507060017 | 46 | 141 | 0.0 | 1.0 | 0.00 | 0.11 | 0.00 | 93 | 1013.8 |
| 20260507055503 | 46 | 271 | 0.0 | 0.0 | 0.00 | 0.11 | 0.00 | 93 | 1013.8 |
| 20260507055003 | 46 | 271 | 0.0 | 0.0 | 0.00 | 0.11 | 0.00 | 93 | 1013.8 |
| 20260507054510 | 46 | 271 | 0.0 | 0.0 | 0.00 | 0.13 | 0.00 | 93 | 1013.8 |
| 20260507054004 | 46 | 271 | 0.0 | 1.0 | 0.00 | 0.14 | 0.00 | 93 | 1013.7 |
| 20260507053505 | 46 | 271 | 0.0 | 1.0 | 0.00 | 0.14 | 0.00 | 93 | 1013.6 |
| 20260507053012 | 46 | 271 | 0.0 | 1.0 | 0.00 | 0.15 | 0.00 | 93 | 1013.6 |
| 20260507052504 | 46 | 271 | 0.0 | 1.0 | 0.00 | 0.16 | 0.00 | 93 | 1013.6 |
| 20260507052005 | 46 | 271 | 0.0 | 1.0 | 0.00 | 0.17 | 0.00 | 93 | 1013.6 |
| 20260507051509 | 46 | 275 | 0.0 | 0.0 | 0.00 | 0.17 | 0.00 | 94 | 1013.5 |
| 20260507051004 | 45 | 275 | 0.0 | 0.0 | 0.00 | 0.17 | 0.00 | 94 | 1013.5 |
| 20260507050504 | 45 | 275 | 0.0 | 0.0 | 0.00 | 0.17 | 0.00 | 94 | 1013.5 |
| 20260507050011 | 45 | 275 | 0.0 | 0.0 | 0.00 | 0.18 | 0.00 | 94 | 1013.5 |
| 20260507045505 | 45 | 275 | 0.0 | 0.0 | 0.00 | 0.18 | 0.00 | 94 | 1013.5 |
| 20260507045006 | 45 | 275 | 0.0 | 0.0 | 0.00 | 0.19 | 0.00 | 94 | 1013.5 |
| 20260507044509 | 45 | 275 | 0.0 | 0.0 | 0.00 | 0.19 | 0.00 | 94 | 1013.4 |
| 20260507044005 | 45 | 275 | 0.0 | 0.0 | 0.00 | 0.19 | 0.00 | 94 | 1013.4 |
| 20260507043505 | 45 | 275 | 0.0 | 0.0 | 0.00 | 0.19 | 0.00 | 94 | 1013.3 |
| 20260507043014 | 45 | 275 | 0.0 | 0.0 | 0.00 | 0.20 | 0.00 | 94 | 1013.4 |
| 20260507042506 | 45 | 275 | 0.0 | 0.0 | 0.00 | 0.20 | 0.00 | 94 | 1013.4 |
| 20260507042005 | 45 | 275 | 0.0 | 0.0 | 0.00 | 0.20 | 0.00 | 93 | 1013.4 |
| 20260507041526 | 45 | 275 | 0.0 | 0.0 | 0.00 | 0.20 | 0.00 | 93 | 1013.4 |
| 20260507041005 | 45 | 275 | 0.0 | 0.0 | 0.00 | 0.20 | 0.00 | 93 | 1013.4 |
| 20260507040506 | 45 | 275 | 0.0 | 0.0 | 0.00 | 0.20 | 0.00 | 93 | 1013.4 |
| 20260507040011 | 45 | 275 | 0.0 | 0.0 | 0.00 | 0.20 | 0.00 | 93 | 1013.4 |
| 20260507035507 | 45 | 275 | 0.0 | 0.0 | 0.00 | 0.20 | 0.00 | 93 | 1013.4 |
| 20260507035005 | 45 | 275 | 0.0 | 0.0 | 0.00 | 0.20 | 0.00 | 93 | 1013.4 |
| 20260507034515 | 45 | 275 | 0.0 | 0.0 | 0.00 | 0.20 | 0.00 | 93 | 1013.3 |
| 20260507034005 | 45 | 275 | 0.0 | 0.0 | 0.00 | 0.20 | 0.00 | 93 | 1013.4 |
| 20260507033505 | 45 | 275 | 0.0 | 0.0 | 0.00 | 0.21 | 0.00 | 93 | 1013.4 |
| 20260507033014 | 45 | 275 | 0.0 | 1.0 | 0.00 | 0.21 | 0.00 | 93 | 1013.4 |
| 20260507032501 | 45 | 275 | 0.0 | 1.0 | 0.00 | 0.21 | 0.00 | 93 | 1013.3 |
| 20260507032001 | 45 | 274 | 0.0 | 1.0 | 0.00 | 0.21 | 0.00 | 93 | 1013.3 |
| 20260507031503 | 45 | 280 | 0.0 | 1.0 | 0.00 | 0.21 | 0.00 | 93 | 1013.4 |
| 20260507031002 | 45 | 281 | 0.0 | 1.0 | 0.00 | 0.21 | 0.00 | 93 | 1013.3 |
| 20260507030506 | 45 | 275 | 0.0 | 1.0 | 0.00 | 0.21 | 0.00 | 93 | 1013.3 |
| 20260507030003 | 45 | 257 | 0.0 | 1.0 | 0.00 | 0.21 | 0.00 | 93 | 1013.3 |
| 20260507025503 | 45 | 255 | 0.0 | 1.0 | 0.00 | 0.21 | 0.00 | 93 | 1013.4 |
| 20260507025002 | 45 | 255 | 0.0 | 1.0 | 0.00 | 0.21 | 0.00 | 94 | 1013.4 |
| 20260507024506 | 45 | 225 | 0.0 | 1.0 | 0.00 | 0.21 | 0.00 | 94 | 1013.3 |
| 20260507024005 | 45 | 179 | 0.0 | 0.0 | 0.00 | 0.22 | 0.00 | 94 | 1013.4 |
| 20260507023507 | 45 | 179 | 0.0 | 0.0 | 0.00 | 0.22 | 0.00 | 93 | 1013.3 |
| 20260507023015 | 45 | 179 | 0.0 | 0.0 | 0.00 | 0.23 | 0.00 | 93 | 1013.3 |
| 20260507022507 | 45 | 179 | 0.0 | 0.0 | 0.00 | 0.25 | 0.00 | 93 | 1013.3 |
| 20260507022010 | 45 | 179 | 0.0 | 0.0 | 0.00 | 0.25 | 0.00 | 93 | 1013.2 |
| 20260507021518 | 45 | 179 | 0.0 | 0.0 | 0.00 | 0.25 | 0.00 | 93 | 1013.2 |
| 20260507021007 | 45 | 179 | 0.0 | 0.0 | 0.00 | 0.25 | 0.00 | 93 | 1013.1 |
| 20260507020503 | 45 | 179 | 0.0 | 1.0 | 0.00 | 0.25 | 0.00 | 93 | 1013.0 |
| 20260507020003 | 45 | 179 | 0.0 | 1.0 | 0.00 | 0.25 | 0.00 | 93 | 1013.0 |
| 20260507015504 | 45 | 257 | 0.0 | 1.0 | 0.00 | 0.25 | 0.00 | 93 | 1013.1 |
| 20260507015002 | 45 | 258 | 0.0 | 1.0 | 0.00 | 0.25 | 0.00 | 93 | 1013.1 |
| 20260507014508 | 45 | 244 | 0.0 | 1.0 | 0.00 | 0.25 | 0.00 | 93 | 1013.1 |
| 20260507014003 | 45 | 252 | 0.0 | 1.0 | 0.00 | 0.25 | 0.00 | 93 | 1013.1 |
| 20260507013502 | 45 | 252 | 0.0 | 1.0 | 0.00 | 0.26 | 0.00 | 93 | 1013.0 |
| 20260507013016 | 45 | 272 | 0.0 | 1.0 | 0.00 | 0.26 | 0.00 | 93 | 1013.1 |
| 20260507012507 | 45 | 259 | 0.0 | 1.0 | 0.00 | 0.26 | 0.00 | 93 | 1013.0 |
| 20260507012006 | 45 | 248 | 0.0 | 1.0 | 0.00 | 0.26 | 0.00 | 93 | 1013.1 |
| 20260507011519 | 45 | 271 | 0.0 | 1.0 | 0.00 | 0.26 | 0.00 | 93 | 1013.1 |
| 20260507011005 | 45 | 242 | 0.0 | 1.0 | 0.00 | 0.26 | 0.00 | 93 | 1013.1 |
| 20260507010507 | 45 | 255 | 0.0 | 1.0 | 0.00 | 0.26 | 0.00 | 94 | 1013.1 |
| 20260507010018 | 45 | 159 | 0.0 | 1.0 | 0.00 | 0.26 | 0.00 | 94 | 1013.1 |
| 20260507005506 | 45 | 151 | 0.0 | 1.0 | 0.00 | 0.26 | 0.00 | 94 | 1013.1 |
| 20260507005007 | 45 | 245 | 0.0 | 1.0 | 0.00 | 0.26 | 0.00 | 94 | 1013.1 |
| 20260507004512 | 45 | 199 | 0.0 | 1.0 | 0.00 | 0.26 | 0.00 | 94 | 1013.1 |
| 20260507004003 | 45 | 261 | 0.0 | 1.0 | 0.00 | 0.26 | 0.00 | 94 | 1013.2 |
| 20260507003503 | 45 | 142 | 0.0 | 1.0 | 0.00 | 0.26 | 0.00 | 94 | 1013.2 |
| 20260507003004 | 45 | 179 | 0.0 | 1.0 | 0.00 | 0.26 | 0.00 | 94 | 1013.2 |
| 20260507002502 | 45 | 203 | 0.0 | 1.0 | 0.00 | 0.27 | 0.00 | 94 | 1013.3 |
| 20260507002003 | 45 | 236 | 0.0 | 1.0 | 0.00 | 0.27 | 0.00 | 94 | 1013.3 |
| 20260507001512 | 45 | 132 | 0.0 | 1.0 | 0.00 | 0.28 | 0.00 | 94 | 1013.3 |
| 20260507001005 | 45 | 132 | 0.0 | 1.0 | 0.00 | 0.29 | 0.00 | 94 | 1013.3 |
| 20260507000505 | 45 | 120 | 0.0 | 1.0 | 0.00 | 0.29 | 0.00 | 94 | 1013.4 |
| 20260507000022 | 45 | 144 | 0.0 | 1.0 | 0.00 | 0.30 | 0.00 | 94 | 1013.4 |
| 20260506235507 | 45 | 144 | 0.0 | 1.0 | 0.00 | 0.31 | 0.00 | 94 | 1013.3 |
| 20260506235006 | 45 | 147 | 0.0 | 1.0 | 0.00 | 0.32 | 0.00 | 94 | 1013.4 |
| 20260506234532 | 45 | 123 | 0.0 | 1.0 | 0.00 | 0.33 | 0.00 | 94 | 1013.4 |
| 20260506234007 | 45 | 143 | 0.0 | 1.0 | 0.00 | 0.33 | 0.00 | 94 | 1013.4 |
| 20260506233509 | 45 | 125 | 0.0 | 1.0 | 0.00 | 0.34 | 0.00 | 94 | 1013.4 |
| 20260506233022 | 45 | 139 | 0.0 | 1.0 | 0.00 | 0.35 | 0.00 | 94 | 1013.4 |
| 20260506232502 | 45 | 121 | 0.0 | 1.0 | 0.00 | 0.37 | 0.00 | 94 | 1013.4 |
| 20260506232002 | 46 | 245 | 0.0 | 1.0 | 0.00 | 0.37 | 0.00 | 94 | 1013.5 |
| 20260506231514 | 45 | 232 | 0.0 | 1.0 | 0.00 | 0.37 | 0.00 | 94 | 1013.5 |
| 20260506231003 | 45 | 262 | 0.0 | 1.0 | 0.00 | 0.38 | 0.00 | 94 | 1013.5 |
| 20260506230504 | 46 | 288 | 0.0 | 1.0 | 0.00 | 0.39 | 0.00 | 94 | 1013.4 |
| 20260506230011 | 46 | 127 | 0.0 | 1.0 | 0.00 | 0.40 | 0.00 | 94 | 1013.4 |
| 20260506225505 | 46 | 129 | 0.0 | 1.0 | 0.00 | 0.42 | 0.00 | 94 | 1013.4 |
| 20260506225006 | 46 | 135 | 0.0 | 1.0 | 0.00 | 0.44 | 0.00 | 94 | 1013.4 |
| 20260506224517 | 46 | 229 | 0.0 | 1.0 | 0.00 | 0.48 | 0.00 | 94 | 1013.4 |
| 20260506224007 | 46 | 207 | 0.0 | 1.0 | 0.00 | 0.49 | 0.00 | 94 | 1013.5 |
| 20260506223507 | 46 | 278 | 0.0 | 1.0 | 0.00 | 0.51 | 0.00 | 94 | 1013.5 |
| 20260506223034 | 46 | 279 | 0.0 | 1.0 | 0.00 | 0.52 | 0.00 | 94 | 1013.5 |
| 20260506222509 | 46 | 250 | 0.0 | 1.0 | 0.00 | 0.54 | 0.00 | 94 | 1013.5 |
| 20260506222008 | 46 | 240 | 0.0 | 1.0 | 0.00 | 0.54 | 0.00 | 94 | 1013.5 |
| 20260506221524 | 46 | 238 | 0.0 | 1.0 | 0.00 | 0.55 | 0.00 | 94 | 1013.5 |
| 20260506221010 | 46 | 241 | 0.0 | 1.0 | 0.00 | 0.55 | 0.00 | 94 | 1013.5 |
| 20260506220504 | 46 | 241 | 0.0 | 1.0 | 0.00 | 0.56 | 0.00 | 94 | 1013.5 |
| 20260506220006 | 46 | 224 | 0.0 | 1.0 | 0.00 | 0.58 | 0.00 | 94 | 1013.4 |
| 20260506215507 | 46 | 248 | 0.0 | 1.0 | 0.00 | 0.59 | 0.58 | 94 | 1013.4 |
| 20260506215008 | 46 | 122 | 0.0 | 1.0 | 0.00 | 0.62 | 0.58 | 94 | 1013.4 |
| 20260506214510 | 46 | 101 | 0.0 | 1.0 | 0.00 | 0.64 | 0.58 | 94 | 1013.3 |
| 20260506214008 | 46 | 203 | 0.0 | 1.0 | 0.00 | 0.66 | 0.58 | 94 | 1013.3 |
| 20260506213507 | 46 | 143 | 0.0 | 1.0 | 0.00 | 0.69 | 0.58 | 94 | 1013.4 |
| 20260506213014 | 46 | 142 | 0.0 | 1.0 | 0.00 | 0.74 | 0.58 | 94 | 1013.4 |
| 20260506212507 | 46 | 145 | 0.0 | 1.0 | 0.00 | 0.76 | 0.58 | 94 | 1013.3 |
| 20260506212009 | 46 | 127 | 0.0 | 2.0 | 0.00 | 0.77 | 0.58 | 94 | 1013.3 |
| 20260506211529 | 46 | 264 | 0.0 | 2.0 | 0.00 | 0.77 | 0.58 | 93 | 1013.2 |
| 20260506211010 | 46 | 286 | 0.0 | 1.0 | 0.00 | 0.77 | 0.58 | 93 | 1013.2 |
| 20260506210507 | 46 | 264 | 0.0 | 1.0 | 0.00 | 0.77 | 0.58 | 93 | 1013.2 |
| 20260506210025 | 46 | 130 | 0.0 | 1.0 | 0.00 | 0.77 | 0.58 | 93 | 1013.1 |
| 20260506205511 | 46 | 127 | 0.0 | 1.0 | 0.00 | 0.77 | 0.58 | 93 | 1013.2 |
| 20260506205007 | 46 | 142 | 0.0 | 1.0 | 0.00 | 0.77 | 0.58 | 93 | 1013.2 |
| 20260506204507 | 46 | 153 | 0.0 | 1.0 | 0.00 | 0.77 | 0.58 | 93 | 1013.0 |
| 20260506204003 | 46 | 137 | 0.0 | 1.0 | 0.00 | 0.77 | 0.58 | 93 | 1012.9 |
| 20260506203504 | 46 | 217 | 0.0 | 1.0 | 0.00 | 0.77 | 0.58 | 93 | 1012.9 |
| 20260506203026 | 46 | 111 | 0.0 | 1.0 | 0.00 | 0.77 | 0.58 | 93 | 1012.8 |
| 20260506202504 | 46 | 216 | 0.0 | 1.0 | 0.00 | 0.77 | 0.58 | 93 | 1012.8 |
| 20260506202007 | 46 | 135 | 0.0 | 1.0 | 0.00 | 0.77 | 0.58 | 93 | 1012.7 |
| 20260506201530 | 46 | 150 | 0.0 | 1.0 | 0.00 | 0.77 | 0.58 | 93 | 1012.7 |
| 20260506201010 | 46 | 145 | 0.0 | 1.0 | 0.00 | 0.77 | 0.58 | 93 | 1012.7 |
| 20260506200505 | 46 | 113 | 0.0 | 1.0 | 0.00 | 0.77 | 0.58 | 93 | 1012.7 |
| 20260506200024 | 46 | 185 | 0.0 | 0.0 | 0.00 | 0.77 | 0.58 | 93 | 1012.8 |
| 20260506195509 | 46 | 185 | 0.0 | 0.0 | 0.00 | 0.77 | 0.58 | 93 | 1012.7 |
| 20260506195008 | 46 | 185 | 0.0 | 0.0 | 0.00 | 0.77 | 0.58 | 93 | 1012.7 |
| 20260506194528 | 46 | 184 | 0.0 | 0.0 | 0.00 | 0.77 | 0.58 | 93 | 1012.7 |
| 20260506194008 | 46 | 184 | 0.0 | 0.0 | 0.00 | 0.77 | 0.58 | 93 | 1012.7 |
| 20260506193508 | 46 | 184 | 0.0 | 0.0 | 0.00 | 0.77 | 0.58 | 93 | 1012.6 |
| 20260506193024 | 46 | 191 | 0.0 | 1.0 | 0.00 | 0.77 | 0.58 | 93 | 1012.5 |
| 20260506192505 | 46 | 191 | 0.0 | 1.0 | 0.00 | 0.77 | 0.58 | 93 | 1012.4 |
| 20260506192008 | 46 | 239 | 0.0 | 1.0 | 0.00 | 0.77 | 0.58 | 92 | 1012.4 |
| 20260506191514 | 46 | 238 | 0.0 | 1.0 | 0.00 | 0.77 | 0.58 | 92 | 1012.3 |
| 20260506191007 | 46 | 179 | 0.0 | 1.0 | 0.00 | 0.77 | 0.58 | 92 | 1012.2 |
| 20260506190507 | 46 | 179 | 0.0 | 1.0 | 0.00 | 0.77 | 0.58 | 92 | 1012.2 |
| 20260506190015 | 46 | 134 | 0.0 | 1.0 | 0.00 | 0.77 | 0.58 | 92 | 1012.1 |
| 20260506185510 | 46 | 128 | 0.0 | 1.0 | 0.00 | 0.77 | 0.58 | 92 | 1012.0 |
| 20260506185014 | 46 | 278 | 0.0 | 1.0 | 0.02 | 0.77 | 0.58 | 92 | 1012.0 |
| 20260506184523 | 46 | 323 | 0.0 | 1.0 | 0.02 | 0.77 | 0.58 | 91 | 1012.0 |
| 20260506184014 | 47 | 86 | 0.0 | 2.0 | 0.05 | 0.77 | 0.58 | 91 | 1012.0 |
| 20260506183510 | 47 | 169 | 0.0 | 2.0 | 0.05 | 0.77 | 0.58 | 91 | 1011.9 |
| 20260506183003 | 47 | 193 | 0.0 | 2.0 | 0.05 | 0.77 | 0.58 | 91 | 1011.8 |
| 20260506182502 | 47 | 2 | 0.0 | 2.0 | 0.05 | 0.77 | 0.57 | 91 | 1011.8 |
| 20260506182003 | 47 | 240 | 0.0 | 2.0 | 0.05 | 0.77 | 0.57 | 90 | 1011.8 |
| 20260506181509 | 48 | 100 | 0.0 | 2.0 | 0.05 | 0.77 | 0.57 | 91 | 1011.8 |
| 20260506181006 | 48 | 132 | 0.0 | 2.0 | 0.06 | 0.77 | 0.57 | 90 | 1011.8 |
| 20260506180506 | 48 | 147 | 0.0 | 2.0 | 0.07 | 0.77 | 0.57 | 90 | 1011.8 |
| 20260506180014 | 48 | 144 | 0.0 | 2.0 | 0.07 | 0.77 | 0.57 | 90 | 1011.8 |
| 20260506175507 | 48 | 129 | 0.0 | 2.0 | 0.07 | 0.77 | 0.57 | 90 | 1011.7 |
| 20260506175007 | 48 | 276 | 0.0 | 4.0 | 0.05 | 0.75 | 0.55 | 90 | 1011.6 |
| 20260506174508 | 48 | 243 | 0.0 | 4.0 | 0.05 | 0.75 | 0.55 | 89 | 1011.5 |
| 20260506174002 | 49 | 156 | 0.0 | 2.0 | 0.02 | 0.72 | 0.52 | 89 | 1011.6 |
| 20260506173501 | 49 | 49 | 0.0 | 2.0 | 0.02 | 0.72 | 0.52 | 89 | 1011.5 |
| 20260506173004 | 49 | 255 | 0.0 | 2.0 | 0.02 | 0.72 | 0.52 | 89 | 1011.5 |
| 20260506172503 | 49 | 306 | 0.0 | 1.0 | 0.01 | 0.71 | 0.51 | 89 | 1011.4 |
| 20260506172003 | 49 | 144 | 0.0 | 3.0 | 0.01 | 0.71 | 0.51 | 88 | 1011.3 |
| 20260506171509 | 49 | 243 | 0.0 | 3.0 | 0.01 | 0.71 | 0.51 | 87 | 1011.3 |
| 20260506171006 | 49 | 326 | 0.0 | 3.0 | 0.00 | 0.70 | 0.51 | 86 | 1011.3 |
| 20260506170502 | 50 | 164 | 0.0 | 3.0 | 0.00 | 0.70 | 0.50 | 85 | 1011.3 |
| 20260506170010 | 50 | 174 | 0.0 | 3.0 | 0.00 | 0.70 | 0.50 | 84 | 1011.2 |
| 20260506165510 | 50 | 136 | 0.0 | 2.0 | 0.00 | 0.70 | 0.50 | 83 | 1011.2 |
| 20260506165008 | 50 | 110 | 0.0 | 4.0 | 0.00 | 0.70 | 0.50 | 83 | 1011.2 |
| 20260506164516 | 51 | 122 | 0.0 | 5.0 | 0.00 | 0.70 | 0.50 | 82 | 1011.2 |
| 20260506164011 | 51 | 137 | 1.0 | 5.0 | 0.00 | 0.70 | 0.50 | 83 | 1011.2 |
| 20260506163505 | 51 | 148 | 0.0 | 4.0 | 0.00 | 0.70 | 0.50 | 84 | 1011.2 |
| 20260506163021 | 51 | 135 | 0.0 | 4.0 | 0.00 | 0.70 | 0.50 | 84 | 1011.1 |
| 20260506162502 | 51 | 115 | 0.0 | 3.0 | 0.00 | 0.70 | 0.50 | 83 | 1011.2 |
| 20260506162002 | 51 | 122 | 0.0 | 4.0 | 0.00 | 0.70 | 0.50 | 83 | 1011.2 |
| 20260506161505 | 52 | 172 | 1.0 | 4.0 | 0.00 | 0.70 | 0.50 | 85 | 1011.2 |
| 20260506161002 | 51 | 105 | 1.0 | 3.0 | 0.00 | 0.70 | 0.50 | 85 | 1011.2 |
| 20260506160503 | 51 | 153 | 0.0 | 3.0 | 0.00 | 0.70 | 0.50 | 84 | 1011.2 |
| 20260506160008 | 51 | 66 | 1.0 | 3.0 | 0.00 | 0.70 | 0.50 | 83 | 1011.2 |
| 20260506155506 | 51 | 106 | 0.0 | 3.0 | 0.00 | 0.70 | 0.50 | 84 | 1011.2 |
| 20260506155003 | 51 | 34 | 0.0 | 3.0 | 0.00 | 0.70 | 0.50 | 85 | 1011.3 |
| 20260506154512 | 50 | 156 | 1.0 | 4.0 | 0.00 | 0.71 | 0.50 | 86 | 1011.3 |
| 20260506154006 | 49 | 196 | 1.0 | 4.0 | 0.00 | 0.72 | 0.50 | 86 | 1011.3 |
| 20260506153506 | 49 | 126 | 1.0 | 3.0 | 0.00 | 0.72 | 0.50 | 87 | 1011.3 |
| 20260506153014 | 48 | 141 | 0.0 | 3.0 | 0.00 | 0.72 | 0.50 | 87 | 1011.3 |
| 20260506152506 | 48 | 148 | 1.0 | 3.0 | 0.00 | 0.72 | 0.50 | 87 | 1011.3 |
| 20260506152007 | 48 | 125 | 1.0 | 4.0 | 0.00 | 0.72 | 0.50 | 87 | 1011.4 |
| 20260506151520 | 48 | 195 | 1.0 | 4.0 | 0.00 | 0.72 | 0.50 | 87 | 1011.3 |
| 20260506151010 | 48 | 150 | 1.0 | 2.0 | 0.00 | 0.72 | 0.50 | 88 | 1011.3 |
| 20260506150503 | 48 | 283 | 0.0 | 4.0 | 0.00 | 0.72 | 0.50 | 88 | 1011.3 |
| 20260506150004 | 48 | 316 | 0.0 | 5.0 | 0.00 | 0.72 | 0.50 | 88 | 1011.3 |
| 20260506145503 | 48 | 136 | 1.0 | 5.0 | 0.00 | 0.72 | 0.50 | 87 | 1011.3 |
| 20260506145003 | 48 | 116 | 1.0 | 5.0 | 0.00 | 0.72 | 0.50 | 86 | 1011.3 |
| 20260506144506 | 48 | 293 | 1.0 | 5.0 | 0.00 | 0.71 | 0.49 | 86 | 1011.3 |
| 20260506144005 | 49 | 179 | 1.0 | 4.0 | 0.00 | 0.72 | 0.49 | 85 | 1011.3 |
| 20260506143506 | 49 | 153 | 1.0 | 4.0 | 0.00 | 0.72 | 0.49 | 84 | 1011.3 |
| 20260506143024 | 50 | 147 | 1.0 | 4.0 | 0.00 | 0.72 | 0.49 | 82 | 1011.3 |
| 20260506142506 | 51 | 123 | 1.0 | 6.0 | 0.00 | 0.74 | 0.49 | 80 | 1011.3 |
| 20260506142008 | 52 | 233 | 1.0 | 9.0 | 0.00 | 0.77 | 0.49 | 78 | 1011.2 |
| 20260506141516 | 53 | 134 | 1.0 | 9.0 | 0.00 | 0.77 | 0.49 | 77 | 1011.1 |
| 20260506141009 | 53 | 116 | 1.0 | 3.0 | 0.00 | 0.78 | 0.49 | 78 | 1011.0 |
| 20260506140507 | 53 | 119 | 1.0 | 3.0 | 0.00 | 0.79 | 0.49 | 77 | 1011.1 |
| 20260506140024 | 53 | 206 | 1.0 | 6.0 | 0.00 | 0.79 | 0.49 | 78 | 1011.0 |
| 20260506135509 | 54 | 306 | 1.0 | 6.0 | 0.00 | 0.79 | 0.49 | 74 | 1011.0 |
| 20260506135009 | 54 | 324 | 1.0 | 4.0 | 0.00 | 0.79 | 0.49 | 76 | 1011.0 |
| 20260506134504 | 54 | 160 | 2.0 | 4.0 | 0.00 | 0.79 | 0.49 | 78 | 1011.0 |
| 20260506134006 | 54 | 136 | 1.0 | 4.0 | 0.01 | 0.79 | 0.49 | 80 | 1011.1 |
| 20260506133503 | 54 | 253 | 1.0 | 4.0 | 0.01 | 0.79 | 0.49 | 82 | 1011.1 |
| 20260506133010 | 53 | 124 | 0.0 | 4.0 | 0.01 | 0.79 | 0.49 | 83 | 1011.1 |
| 20260506132509 | 52 | 138 | 1.0 | 3.0 | 0.01 | 0.79 | 0.49 | 86 | 1011.1 |
| 20260506132010 | 51 | 35 | 0.0 | 4.0 | 0.01 | 0.79 | 0.49 | 83 | 1011.1 |
| 20260506131515 | 51 | 15 | 0.0 | 5.0 | 0.01 | 0.79 | 0.49 | 87 | 1011.2 |
| 20260506131010 | 50 | 184 | 1.0 | 5.0 | 0.01 | 0.79 | 0.49 | 87 | 1011.2 |
| 20260506130511 | 49 | 146 | 2.0 | 4.0 | 0.01 | 0.79 | 0.49 | 86 | 1011.3 |
| 20260506130022 | 49 | 105 | 0.0 | 5.0 | 0.01 | 0.79 | 0.49 | 87 | 1011.3 |
| 20260506125507 | 49 | 117 | 2.0 | 5.0 | 0.01 | 0.79 | 0.49 | 86 | 1011.3 |
| 20260506125007 | 50 | 186 | 1.0 | 5.0 | 0.00 | 0.78 | 0.48 | 83 | 1011.2 |
| 20260506124524 | 51 | 143 | 1.0 | 7.0 | 0.00 | 0.78 | 0.48 | 81 | 1011.3 |
| 20260506124010 | 53 | 65 | 2.0 | 7.0 | 0.00 | 0.77 | 0.48 | 77 | 1011.2 |
| 20260506123510 | 54 | 290 | 1.0 | 4.0 | 0.00 | 0.77 | 0.48 | 74 | 1011.0 |
| 20260506123031 | 55 | 79 | 0.0 | 4.0 | 0.00 | 0.77 | 0.48 | 74 | 1011.0 |
| 20260506122503 | 54 | 162 | 1.0 | 5.0 | 0.00 | 0.77 | 0.48 | 77 | 1011.0 |
| 20260506122002 | 54 | 152 | 2.0 | 5.0 | 0.00 | 0.77 | 0.48 | 77 | 1011.0 |
| 20260506121518 | 53 | 128 | 1.0 | 4.0 | 0.00 | 0.77 | 0.48 | 78 | 1011.0 |
| 20260506121007 | 53 | 289 | 1.0 | 4.0 | 0.00 | 0.77 | 0.48 | 78 | 1011.1 |
| 20260506120507 | 52 | 91 | 1.0 | 6.0 | 0.00 | 0.77 | 0.48 | 81 | 1011.1 |
| 20260506120018 | 52 | 118 | 2.0 | 6.0 | 0.00 | 0.77 | 0.48 | 82 | 1011.1 |
| 20260506115507 | 53 | 141 | 3.0 | 6.0 | 0.00 | 0.77 | 0.48 | 84 | 1011.2 |
| 20260506115006 | 52 | 138 | 1.0 | 4.0 | 0.00 | 0.77 | 0.48 | 83 | 1011.2 |
| 20260506114521 | 51 | 96 | 1.0 | 4.0 | 0.00 | 0.78 | 0.48 | 86 | 1011.3 |
| 20260506114010 | 50 | 120 | 1.0 | 6.0 | 0.00 | 0.78 | 0.48 | 84 | 1011.3 |
| 20260506113507 | 50 | 139 | 1.0 | 6.0 | 0.00 | 0.78 | 0.48 | 86 | 1011.4 |
| 20260506113030 | 50 | 278 | 1.0 | 5.0 | 0.00 | 0.78 | 0.48 | 85 | 1011.4 |
| 20260506112512 | 50 | 281 | 1.0 | 7.0 | 0.00 | 0.78 | 0.48 | 81 | 1011.5 |
| 20260506112013 | 51 | 259 | 3.0 | 7.0 | 0.00 | 0.77 | 0.47 | 80 | 1011.4 |
| 20260506111525 | 52 | 307 | 1.0 | 4.0 | 0.00 | 0.77 | 0.47 | 81 | 1011.5 |
| 20260506111006 | 52 | 117 | 1.0 | 6.0 | 0.00 | 0.77 | 0.47 | 81 | 1011.5 |
| 20260506110504 | 52 | 164 | 1.0 | 6.0 | 0.00 | 0.77 | 0.47 | 82 | 1011.5 |
| 20260506110014 | 52 | 123 | 2.0 | 6.0 | 0.00 | 0.77 | 0.47 | 80 | 1011.5 |